User: anonymous   Login
Location: Unspecified
(0.0000°N, 0.0000°E)
Time: 08:33:12
(UTC+00:00)
Language:

DICE 2 - Orbit

View from above orbital plane
View from above orbital plane
View from above satellite
View from above satellite

Ground track
Ground track

The orbit data is extracted from the following two-line orbital elements,

1 37852U 11061C   19345.80964655  .00000993  00000-0  57532-4 0  9996
2 37852 101.7287 336.3283 0163267 268.0790  90.1718 15.06818734443424
Epoch (UTC): 11 December 2019 19:25:53
Eccentricity: 0.0163267
inclination: 101.7287°
perigee height: 433 km
apogee height: 659 km
right ascension of ascending node: 336.3283°
argument of perigee: 268.0790°
revolutions per day: 15.06818734
mean anomaly at epoch: 90.1718°
orbit number at epoch: 44342

The dashed part of the orbit path shows where the satellite is in the earth's shadow,  

DLR